Weather History for Bend, OR

Change the Weather History Date:

Wednesday, May 22, 2013

  Actual Average (KRDM) Record (KRDM)
Temperature  
Mean Temperature 40 °F 53 °F  
Max Temperature 48 °F 69 °F 90 °F (1979)
Min Temperature 32 °F 37 °F 21 °F (2013)
Degree Days  
Heating Degree Days 25 12  
Month to date heating degree days 326  
Since 1 July heating degree days 6397  
Cooling Degree Days 0 0  
Month to date cooling degree days 0  
Year to date cooling degree days 0  
Moisture  
Dew Point 26 °F    
Average Humidity 59    
Maximum Humidity 75    
Minimum Humidity 43    
Precipitation  
Precipitation 0.00 in 0.04 in 0.29 in (1958)
Month to date precipitation 0.69  
Year to date precipitation 3.70  
Sea Level Pressure  
Sea Level Pressure 29.91 in    
Wind  
Wind Speed 14 mph (SW)    
Max Wind Speed 24 mph    
Max Gust Speed 29 mph    
Visibility 10 miles    
Events      
T = Trace of Precipitation, MM = Missing Value Source: NWS Daily Summary

Daily Weather History Graph

Daily Weather History Graph

Search for Another Location

Airport:

Trip Planner

Search our weather history database for the weather conditions in past years. The results will help you decide how hot, cold, wet, or windy it might be!

Date:

Astronomy

May. 22, 2013 Rise Set
Actual Time 5:31 AM PDT 8:32 PM PDT
Civil Twilight 4:56 AM PDT 9:06 PM PDT
Nautical Twilight 4:13 AM PDT 9:50 PM PDT
Astronomical Twilight 3:20 AM PDT 10:43 PM PDT
Moon 5:56 PM PDT (5/22) 3:44 AM PDT (5/22)
Length of Visible Light 16h 09m
Length of Day
15h 00m
Waxing Gibbous, 92% of the Moon is Illuminated
May 22
Waxing Gibbous
May 24
Full
May 31
Last Quarter
Jun 8
New
Jun 16
First Quarter

Hourly Weather History & Observations

Time (PDT) Temp. Windchill Dew Point Humidity Pressure Visibility Wind Dir Wind Speed Gust Speed Precip Events Conditions
12:15 AM 33.8 °F 24.8 °F 23.0 °F 65% 29.91 in 10.0 mi SSW 12.7 mph - N/A   Clear
12:35 AM 33.8 °F 24.3 °F 23.0 °F 65% 29.91 in 10.0 mi SW 13.8 mph - N/A   Clear
12:55 AM 33.8 °F 25.8 °F 23.0 °F 65% 29.91 in 10.0 mi SW 10.4 mph 16.1 mph N/A   Clear
1:15 AM 33.8 °F 26.4 °F 21.2 °F 60% 29.91 in 10.0 mi SW 9.2 mph - N/A   Clear
1:35 AM 33.8 °F 26.4 °F 19.4 °F 56% 29.91 in 10.0 mi SW 9.2 mph - N/A   Clear
1:55 AM 32.0 °F 22.1 °F 21.2 °F 64% 29.91 in 10.0 mi SW 13.8 mph - N/A   Clear
2:15 AM 32.0 °F 23.0 °F 23.0 °F 69% 29.91 in 10.0 mi SW 11.5 mph - N/A   Clear
2:35 AM 32.0 °F 22.5 °F 23.0 °F 69% 29.91 in 10.0 mi SSW 12.7 mph - N/A   Clear
2:55 AM 32.0 °F 22.1 °F 23.0 °F 69% 29.91 in 10.0 mi SSW 13.8 mph 18.4 mph N/A   Clear
3:15 AM 32.0 °F 22.5 °F 23.0 °F 69% 29.91 in 10.0 mi SSW 12.7 mph - N/A   Clear
3:35 AM 32.0 °F 22.1 °F 23.0 °F 69% 29.90 in 10.0 mi SSW 13.8 mph - N/A   Clear
3:55 AM 32.0 °F 23.0 °F 23.0 °F 69% 29.90 in 10.0 mi SW 11.5 mph 17.3 mph N/A   Clear
4:15 AM 32.0 °F 22.5 °F 23.0 °F 69% 29.90 in 10.0 mi SSW 12.7 mph - N/A   Clear
4:35 AM 32.0 °F 23.6 °F 23.0 °F 69% 29.90 in 10.0 mi SW 10.4 mph - N/A   Clear
4:55 AM 32.0 °F 23.0 °F 23.0 °F 69% 29.90 in 10.0 mi SW 11.5 mph - N/A   Clear
5:15 AM 32.0 °F 23.6 °F 23.0 °F 69% 29.90 in 10.0 mi SSW 10.4 mph 17.3 mph N/A   Clear
5:35 AM 32.0 °F 22.5 °F 23.0 °F 69% 29.90 in 10.0 mi SSW 12.7 mph - N/A   Clear
5:55 AM 32.0 °F 23.0 °F 23.0 °F 69% 29.90 in 10.0 mi SSW 11.5 mph 16.1 mph N/A   Clear
6:15 AM 32.0 °F 21.6 °F 23.0 °F 69% 29.90 in 10.0 mi SSW 15.0 mph - N/A   Clear
6:35 AM 32.0 °F 21.6 °F 24.8 °F 75% 29.89 in 10.0 mi SW 15.0 mph - N/A   Clear
6:55 AM 33.8 °F 23.5 °F 24.8 °F 70% 29.90 in 10.0 mi SW 16.1 mph 23.0 mph N/A   Clear
7:15 AM 33.8 °F 23.5 °F 24.8 °F 70% 29.90 in 10.0 mi SW 16.1 mph 25.3 mph N/A   Clear
7:35 AM 35.6 °F 25.5 °F 24.8 °F 65% 29.90 in 10.0 mi SW 17.3 mph 25.3 mph N/A   Clear
7:55 AM 35.6 °F 24.8 °F 24.8 °F 65% 29.90 in 10.0 mi SW 19.6 mph 25.3 mph N/A   Clear
8:15 AM 37.4 °F 27.2 °F 24.8 °F 60% 29.91 in 10.0 mi SSW 19.6 mph 24.2 mph N/A   Partly Cloudy
8:35 AM 37.4 °F 28.2 °F 24.8 °F 60% 29.91 in 10.0 mi SW 16.1 mph 21.9 mph N/A   Partly Cloudy
8:55 AM 37.4 °F 28.5 °F 26.6 °F 65% 29.91 in 10.0 mi SSW 15.0 mph 23.0 mph N/A   Clear
9:15 AM 39.2 °F 29.6 °F 26.6 °F 61% 29.90 in 10.0 mi SW 19.6 mph 24.2 mph N/A   Partly Cloudy
9:35 AM 39.2 °F 30.2 °F 24.8 °F 56% 29.91 in 10.0 mi SW 17.3 mph 24.2 mph N/A   Clear
9:55 AM 39.2 °F 29.8 °F 26.6 °F 61% 29.91 in 10.0 mi SW 18.4 mph 21.9 mph N/A   Partly Cloudy
10:15 AM 39.2 °F 30.5 °F 26.6 °F 61% 29.91 in 10.0 mi SSW 16.1 mph 24.2 mph N/A   Clear
10:35 AM 41.0 °F 31.9 °F 26.6 °F 57% 29.91 in 10.0 mi SSW 19.6 mph 26.5 mph N/A   Clear
10:55 AM 42.8 °F 34.0 °F 26.6 °F 53% 29.90 in 10.0 mi SSW 20.7 mph 28.8 mph N/A   Clear
11:15 AM 44.6 °F 36.6 °F 26.6 °F 49% 29.90 in 10.0 mi SW 19.6 mph 28.8 mph N/A   Clear
11:35 AM 44.6 °F 37.4 °F 24.8 °F 46% 29.90 in 10.0 mi SW 16.1 mph 25.3 mph N/A   Clear
11:55 AM 44.6 °F 35.7 °F 26.6 °F 49% 29.90 in 10.0 mi SSW 24.2 mph 27.6 mph N/A   Clear
12:15 PM 42.8 °F 34.8 °F 26.6 °F 53% 29.91 in 10.0 mi SW 17.3 mph 28.8 mph N/A   Clear
12:35 PM 44.6 °F 37.8 °F 26.6 °F 49% 29.91 in 10.0 mi SW 15.0 mph 26.5 mph N/A   Clear
12:55 PM 44.6 °F 37.4 °F 28.4 °F 53% 29.91 in 10.0 mi SW 16.1 mph 23.0 mph N/A   Clear
1:15 PM 44.6 °F 37.8 °F 28.4 °F 53% 29.91 in 10.0 mi SW 15.0 mph 25.3 mph N/A   Clear
1:35 PM 44.6 °F 36.6 °F 28.4 °F 53% 29.91 in 10.0 mi SW 19.6 mph - N/A   Clear
1:55 PM 44.6 °F 37.4 °F 28.4 °F 53% 29.92 in 10.0 mi SW 16.1 mph 23.0 mph N/A   Clear
2:15 PM 44.6 °F 37.2 °F 28.4 °F 53% 29.92 in 10.0 mi SW 17.3 mph 26.5 mph N/A   Clear
2:35 PM 44.6 °F 37.4 °F 28.4 °F 53% 29.92 in 10.0 mi SW 16.1 mph 24.2 mph N/A   Clear
2:55 PM 44.6 °F 36.6 °F 28.4 °F 53% 29.93 in 10.0 mi SW 19.6 mph 23.0 mph N/A   Partly Cloudy
3:15 PM 44.6 °F 37.4 °F 28.4 °F 53% 29.93 in 10.0 mi SW 16.1 mph 23.0 mph N/A   Partly Cloudy
3:35 PM 46.4 °F 40.1 °F 28.4 °F 50% 29.92 in 10.0 mi SW 15.0 mph 20.7 mph N/A   Partly Cloudy
3:55 PM 44.6 °F 37.2 °F 28.4 °F 53% 29.92 in 10.0 mi WSW 17.3 mph 21.9 mph N/A   Scattered Clouds
4:15 PM 46.4 °F 39.8 °F 28.4 °F 50% 29.92 in 10.0 mi SW 16.1 mph 20.7 mph N/A   Partly Cloudy
4:35 PM 46.4 °F 41.1 °F 28.4 °F 50% 29.92 in 10.0 mi WSW 11.5 mph 25.3 mph N/A   Clear
4:55 PM 48.2 °F - 26.6 °F 43% 29.92 in 10.0 mi SW 15.0 mph 21.9 mph N/A   Clear
5:15 PM 48.2 °F - 28.4 °F 46% 29.92 in 10.0 mi SSW 17.3 mph 21.9 mph N/A   Clear
5:35 PM 46.4 °F 40.7 °F 28.4 °F 50% 29.93 in 10.0 mi WSW 12.7 mph - N/A   Clear
5:55 PM 46.4 °F 40.4 °F 26.6 °F 46% 29.92 in 10.0 mi SW 13.8 mph 18.4 mph N/A   Clear
6:15 PM 46.4 °F 41.1 °F 26.6 °F 46% 29.93 in 10.0 mi WSW 11.5 mph - N/A   Clear
6:35 PM 46.4 °F 41.5 °F 26.6 °F 46% 29.92 in 10.0 mi WSW 10.4 mph - N/A   Clear
6:55 PM 46.4 °F 41.1 °F 26.6 °F 46% 29.92 in 10.0 mi WSW 11.5 mph - N/A   Clear
7:15 PM 44.6 °F 38.8 °F 26.6 °F 49% 29.92 in 10.0 mi SW 11.5 mph - N/A   Clear
7:35 PM 44.6 °F 38.4 °F 26.6 °F 49% 29.93 in 10.0 mi SW 12.7 mph - N/A   Clear
7:55 PM 44.6 °F 38.8 °F 28.4 °F 53% 29.92 in 10.0 mi SW 11.5 mph - N/A   Clear
8:15 PM 44.6 °F 39.7 °F 26.6 °F 49% 29.92 in 10.0 mi SW 9.2 mph 16.1 mph N/A   Clear
8:35 PM 42.8 °F 38.0 °F 26.6 °F 53% 29.92 in 10.0 mi WSW 8.1 mph - N/A   Clear
8:55 PM 42.8 °F 38.0 °F 26.6 °F 53% 29.93 in 10.0 mi SSW 8.1 mph - N/A   Clear
9:15 PM 41.0 °F 35.8 °F 28.4 °F 61% 29.93 in 10.0 mi WSW 8.1 mph - N/A   Clear
9:35 PM 41.0 °F 34.7 °F 28.4 °F 61% 29.94 in 10.0 mi SSW 10.4 mph - N/A   Clear
9:55 PM 41.0 °F 35.2 °F 28.4 °F 61% 29.94 in 10.0 mi SSW 9.2 mph - N/A   Clear
10:15 PM 41.0 °F 35.2 °F 28.4 °F 61% 29.94 in 10.0 mi SW 9.2 mph - N/A   Clear
10:35 PM 39.2 °F 32.0 °F 28.4 °F 65% 29.94 in 10.0 mi SW 11.5 mph - N/A   Partly Cloudy
10:55 PM 39.2 °F 32.5 °F 28.4 °F 65% 29.94 in 10.0 mi SSW 10.4 mph - N/A   Clear
11:15 PM 39.2 °F 33.6 °F 28.4 °F 65% 29.94 in 10.0 mi SSW 8.1 mph - N/A   Clear
11:35 PM 39.2 °F 33.6 °F 28.4 °F 65% 29.94 in 10.0 mi SSW 8.1 mph - N/A   Clear
11:55 PM 37.4 °F 30.8 °F 28.4 °F 70% 29.94 in 10.0 mi SSW 9.2 mph - N/A   Clear